Voltar ao catálogo

CZ-4B SEP MOTOR COVER

AtivoSSO
NORAD 44890·DEBRIS·🇨🇳 China
Este nome de satélite ainda não foi confirmado por fontes oficiais.

Lançado Dec 20, 2019 de Taiyuan Satellite Launch Center

Loading…

Próximas Passagens (próximas 24 horas)

TLE

AtualizadoSource: Space-Track

Época: Sep 14, 2026, 13:05 UTC

1 44890U 19093M   26257.54561990  .00013204  00000-0  48029-3 0  9994
2 44890  97.7734   7.8798 0019058   4.0547 356.0842 15.28213832367926

Acompanhe CZ-4B SEP MOTOR COVER em tempo real com AllMySat

Download on the App Store